When you browse on this site, cookies collect data to enhance your experience and personalize the content and advertising you see.
Visit our Privacy Policy to learn more. By continuing to use the site, you agree to this use of cookies and data.
  • In Czech Republic
  • List of Countries
  • For 7 days
  • Water Temperature
  • Satellite Maps
  • Weather Map
  • Weather Widgets
  • user-avatar
    Login

    Hourly Weather Kensington

    Today, 24 April, Wednesday

    Time Temperature Precipitation Wind Pressure Humidity
    00:00 +3°C° 0.5 mm 4 mps 753 mmHg 97%
    01:00 +3°C° 0.5 mm 3 mps 752 mmHg 98%
    02:00 +4°C° 0.5 mm 2 mps 752 mmHg 98%
    03:00 +4°C° 0.3 mm 2 mps 751 mmHg 98%
    04:00 +3°C° 0.3 mm 3 mps 751 mmHg 98%
    05:00 +3°C° 0.3 mm 3 mps 751 mmHg 98%
    06:00 +3°C° 0 mm 3 mps 751 mmHg 97%
    07:00 +3°C° 0 mm 3 mps 751 mmHg 96%
    08:00 +3°C° 0 mm 3 mps 751 mmHg 95%
    09:00 +3°C° 0 mm 3 mps 751 mmHg 94%
    10:00 +3°C° 0 mm 3 mps 751 mmHg 93%
    11:00 +4°C° 0 mm 3 mps 752 mmHg 92%
    12:00 +4°C° 0 mm 3 mps 752 mmHg 90%
    13:00 +4°C° 0 mm 3 mps 752 mmHg 89%
    14:00 +5°C° 0 mm 3 mps 752 mmHg 87%
    15:00 +4°C° 0 mm 4 mps 752 mmHg 88%
    16:00 +3°C° 0 mm 5 mps 752 mmHg 89%
    17:00 +2°C° 0 mm 5 mps 752 mmHg 90%
    18:00 +2°C° 0.6 mm 5 mps 752 mmHg 91%
    19:00 +2°C° 0.6 mm 5 mps 752 mmHg 93%
    20:00 +1°C° 0.6 mm 6 mps 751 mmHg 94%
    21:00 +1°C° 0.7 mm 6 mps 751 mmHg 94%
    22:00 +1°C° 0.7 mm 6 mps 751 mmHg 95%
    23:00 0°C° 0.7 mm 7 mps 750 mmHg 95%

    Tomorrow, 25 April, Thursday

    Time Temperature Precipitation Wind Pressure Humidity
    00:00 0°C° 0.9 mm 7 mps 750 mmHg 95%
    01:00 +2°C° 0.9 mm 6 mps 749 mmHg 96%
    02:00 +2°C° 0.9 mm 6 mps 749 mmHg 96%
    03:00 +2°C° 2.2 mm 7 mps 749 mmHg 96%
    04:00 +1°C° 2.2 mm 8 mps 749 mmHg 95%
    05:00 0°C° 2.2 mm 8 mps 749 mmHg 95%
    06:00 0°C° 0.8 mm 9 mps 749 mmHg 94%
    07:00 0°C° 0.8 mm 10 mps 750 mmHg 92%
    08:00 0°C° 0.8 mm 10 mps 750 mmHg 91%
    09:00 0°C° 0.1 mm 10 mps 751 mmHg 91%
    10:00 0°C° 0.1 mm 9 mps 751 mmHg 90%
    11:00 0°C° 0.1 mm 9 mps 752 mmHg 89%
    12:00 0°C° 0.1 mm 9 mps 752 mmHg 89%
    13:00 0°C° 0.1 mm 8 mps 753 mmHg 88%
    14:00 0°C° 0.1 mm 8 mps 754 mmHg 87%
    15:00 0°C° 0 mm 7 mps 754 mmHg 87%
    16:00 0°C° 0 mm 7 mps 755 mmHg 87%
    17:00 +1°C° 0 mm 6 mps 755 mmHg 87%
    18:00 +1°C° 0 mm 6 mps 756 mmHg 87%
    19:00 +1°C° 0 mm 5 mps 756 mmHg 88%
    20:00 0°C° 0 mm 5 mps 757 mmHg 88%
    21:00 0°C° 0 mm 5 mps 757 mmHg 88%
    22:00 0°C° 0 mm 4 mps 758 mmHg 88%
    23:00 0°C° 0 mm 4 mps 758 mmHg 89%

    Day after tomorrow, 26 April, Friday

    Time Temperature Precipitation Wind Pressure Humidity
    00:00 0°C° 0 mm 4 mps 758 mmHg 89%
    01:00 0°C° 0 mm 4 mps 758 mmHg 89%
    02:00 +1°C° 0 mm 3 mps 758 mmHg 89%
    03:00 +1°C° 0 mm 3 mps 758 mmHg 88%
    04:00 +1°C° 0 mm 3 mps 758 mmHg 88%
    05:00 +2°C° 0 mm 2 mps 758 mmHg 88%
    06:00 +2°C° 0 mm 2 mps 759 mmHg 86%
    07:00 +3°C° 0 mm 1 mps 759 mmHg 83%
    08:00 +3°C° 0 mm 0 mps 759 mmHg 81%
    09:00 +5°C° 0 mm 1 mps 759 mmHg 78%
    10:00 +6°C° 0 mm 1 mps 759 mmHg 75%
    11:00 +7°C° 0 mm 1 mps 759 mmHg 72%
    12:00 +7°C° 0 mm 2 mps 758 mmHg 70%
    13:00 +7°C° 0 mm 2 mps 758 mmHg 68%
    14:00 +8°C° 0 mm 3 mps 758 mmHg 66%
    15:00 +8°C° 0 mm 3 mps 757 mmHg 66%
    16:00 +7°C° 0 mm 4 mps 757 mmHg 66%
    17:00 +7°C° 0 mm 4 mps 757 mmHg 66%
    18:00 +6°C° 0 mm 5 mps 757 mmHg 69%
    19:00 +5°C° 0 mm 5 mps 757 mmHg 73%
    20:00 +4°C° 0 mm 6 mps 757 mmHg 76%
    21:00 +3°C° 0 mm 6 mps 757 mmHg 78%
    22:00 +3°C° 0 mm 6 mps 757 mmHg 79%
    23:00 +3°C° 0 mm 6 mps 757 mmHg 80%

    27 April, Saturday

    Time Temperature Precipitation Wind Pressure Humidity
    00:00 +3°C° 0 mm 7 mps 756 mmHg 80%
    01:00 +2°C° 0 mm 7 mps 756 mmHg 80%
    02:00 +2°C° 0 mm 7 mps 756 mmHg 80%
    03:00 +2°C° 0 mm 7 mps 755 mmHg 80%
    04:00 +2°C° 0 mm 8 mps 754 mmHg 80%
    05:00 +2°C° 0 mm 8 mps 754 mmHg 81%
    06:00 +3°C° 0 mm 9 mps 753 mmHg 83%
    07:00 +5°C° 0 mm 9 mps 752 mmHg 84%
    08:00 +6°C° 0 mm 10 mps 752 mmHg 86%
    09:00 +8°C° 0 mm 10 mps 751 mmHg 84%
    10:00 +9°C° 0 mm 11 mps 751 mmHg 82%
    11:00 +12°C° 0 mm 11 mps 750 mmHg 80%
    12:00 +12°C° 0 mm 11 mps 750 mmHg 81%
    13:00 +13°C° 0 mm 11 mps 749 mmHg 82%
    14:00 +13°C° 0 mm 11 mps 749 mmHg 83%
    15:00 +13°C° 0 mm 11 mps 748 mmHg 84%
    16:00 +13°C° 0 mm 11 mps 748 mmHg 85%
    17:00 +13°C° 0 mm 11 mps 747 mmHg 87%
    18:00 +13°C° 0 mm 11 mps 748 mmHg 87%
    19:00 +13°C° 0 mm 10 mps 748 mmHg 87%
    20:00 +13°C° 0 mm 10 mps 748 mmHg 88%
    21:00 +13°C° 0.1 mm 10 mps 749 mmHg 89%
    22:00 +13°C° 0.1 mm 9 mps 749 mmHg 90%
    23:00 +13°C° 0.1 mm 9 mps 749 mmHg 91%

    28 April, Sunday

    Time Temperature Precipitation Wind Pressure Humidity
    00:00 +13°C° 0.4 mm 9 mps 749 mmHg 91%
    01:00 +13°C° 0.4 mm 9 mps 749 mmHg 92%
    02:00 +12°C° 0.4 mm 9 mps 749 mmHg 92%
    03:00 +12°C° 1.3 mm 8 mps 750 mmHg 93%
    04:00 +12°C° 1.3 mm 7 mps 750 mmHg 94%
    05:00 +13°C° 1.3 mm 5 mps 750 mmHg 95%
    06:00 +12°C° 1.9 mm 5 mps 751 mmHg 95%
    07:00 +11°C° 1.9 mm 4 mps 751 mmHg 96%
    08:00 +11°C° 1.9 mm 4 mps 751 mmHg 97%
    09:00 +11°C° 0.8 mm 3 mps 751 mmHg 97%
    10:00 +10°C° 0.8 mm 3 mps 752 mmHg 97%
    11:00 +10°C° 0.8 mm 3 mps 752 mmHg 97%
    12:00 +10°C° 1.4 mm 3 mps 751 mmHg 98%
    13:00 +10°C° 1.4 mm 3 mps 751 mmHg 98%
    14:00 +9°C° 1.4 mm 3 mps 751 mmHg 98%
    15:00 +10°C° 0.8 mm 3 mps 751 mmHg 98%
    16:00 +10°C° 0.8 mm 3 mps 751 mmHg 97%
    17:00 +10°C° 0.8 mm 3 mps 751 mmHg 97%
    18:00 +10°C° 0.3 mm 3 mps 751 mmHg 98%
    19:00 +9°C° 0.3 mm 3 mps 751 mmHg 98%
    20:00 +9°C° 0.3 mm 3 mps 751 mmHg 98%
    21:00 +8°C° 0 mm 3 mps 751 mmHg 98%
    22:00 +8°C° 0 mm 3 mps 751 mmHg 98%
    23:00 +8°C° 0 mm 3 mps 750 mmHg 98%

    29 April, Monday

    Time Temperature Precipitation Wind Pressure Humidity
    00:00 +7°C° 0 mm 3 mps 750 mmHg 97%
    01:00 +7°C° 0 mm 2 mps 749 mmHg 97%
    02:00 +7°C° 0 mm 2 mps 748 mmHg 96%
    03:00 +7°C° 0 mm 3 mps 748 mmHg 96%
    04:00 +7°C° 0 mm 4 mps 747 mmHg 96%
    05:00 +7°C° 0 mm 5 mps 746 mmHg 96%
    06:00 +7°C° 0.3 mm 6 mps 746 mmHg 94%
    07:00 +6°C° 0.3 mm 7 mps 745 mmHg 93%
    08:00 +6°C° 0.3 mm 7 mps 744 mmHg 91%
    09:00 +6°C° 0.1 mm 8 mps 744 mmHg 87%
    10:00 +6°C° 0.1 mm 8 mps 743 mmHg 83%
    11:00 +6°C° 0.1 mm 9 mps 742 mmHg 78%
    12:00 +6°C° 0.1 mm 9 mps 742 mmHg 79%
    13:00 +5°C° 0.1 mm 8 mps 741 mmHg 79%
    14:00 +5°C° 0.1 mm 8 mps 740 mmHg 79%
    15:00 +5°C° 0.4 mm 8 mps 741 mmHg 80%
    16:00 +5°C° 0.4 mm 8 mps 741 mmHg 81%
    17:00 +5°C° 0.4 mm 9 mps 741 mmHg 82%
    18:00 +5°C° 0.2 mm 10 mps 742 mmHg 82%
    19:00 +3°C° 0.2 mm 11 mps 743 mmHg 82%
    20:00 +3°C° 0.2 mm 11 mps 744 mmHg 83%
    21:00 +2°C° 0.1 mm 12 mps 745 mmHg 82%
    22:00 +2°C° 0.1 mm 12 mps 745 mmHg 81%
    23:00 0°C° 0.1 mm 12 mps 746 mmHg 81%
    Show more